Pittsburgh, PA

12:15 PM EDT on April 28, 2017 (GMT -0400)
Pittsburgh International

Weather History for KPIT - April, 2013

Change the Weather History Date:

Tuesday, April 9, 2013

  Actual Average Record
Temperature  
Mean Temperature 68 °F 49 °F  
Max Temperature 80 °F 59 °F 80 °F (1969)
Min Temperature 55 °F 38 °F 15 °F (1977)
Degree Days  
Heating Degree Days 0 16  
Month to date heating degree days 170 161  
Since 1 July heating degree days 5176 5206  
Cooling Degree Days 3 0  
Month to date cooling degree days 3 0  
Year to date cooling degree days 3 1  
Growing Degree Days 18 (Base 50)    
Moisture  
Dew Point 49 °F    
Average Humidity 55    
Maximum Humidity 77    
Minimum Humidity 33    
Precipitation  
Precipitation T in 0.11 in 1.88 in (1942)
Month to date precipitation 0.02 0.93  
Year to date precipitation 6.76 8.97  
Snow  
Snow 0.00 in 0.10 in 2.70 in (1982)
Month to date snowfall T 0.8  
Since 1 July snowfall 57.4 41.2  
Snow Depth 0.00 in    
Sea Level Pressure  
Sea Level Pressure 30.01 in    
Wind  
Wind Speed 8 mph (WSW)    
Max Wind Speed 18 mph    
Max Gust Speed 25 mph    
Visibility 10 miles    
Events      
T = Trace of Precipitation, MM = Missing Value Source: NWS Daily Summary

Daily Weather History Graph

Daily Weather History Graph

Search for Another Location

Airport or City:

Trip Planner

Search our weather history database for the weather conditions in past years. The results will help you decide how hot, cold, wet, or windy it might be!

Date:

Astronomy

Apr. 09, 2013 Rise Set
Actual Time 6:51 AM EDT 7:54 PM EDT
Civil Twilight 6:23 AM EDT 8:22 PM EDT
Nautical Twilight 5:50 AM EDT 8:55 PM EDT
Astronomical Twilight 5:15 AM EDT 9:30 PM EDT
Moon 6:13 AM EDT (4/9) 7:28 PM EDT (4/9)
Length of Visible Light 13h 58m
Length of Day
13h 02m
Waning Crescent, 1% of the Moon is Illuminated
Apr 9
Waning Crescent
Apr 10
New
Apr 18
First Quarter
Apr 25
Full
May 2
Last Quarter

Hourly Weather History & Observations

Time (EDT) Temp. Dew Point Humidity Pressure Visibility Wind Dir Wind Speed Gust Speed Precip Events Conditions
12:51 AM 66.2 °F 46.4 °F 49% 29.97 in 10.0 mi WSW 10.4 mph 18.4 mph N/A   Mostly Cloudy
1:51 AM 66.9 °F 48.0 °F 51% 29.99 in 10.0 mi WSW 10.4 mph 19.6 mph N/A   Overcast
2:51 AM 64.9 °F 50.0 °F 58% 29.99 in 10.0 mi West 8.1 mph - 0.00 in   Mostly Cloudy
3:51 AM 64.0 °F 50.0 °F 60% 30.00 in 10.0 mi West 4.6 mph - N/A   Mostly Cloudy
4:51 AM 60.1 °F 50.0 °F 69% 30.03 in 10.0 mi WNW 8.1 mph - N/A   Mostly Cloudy
5:51 AM 57.0 °F 48.9 °F 74% 30.05 in 10.0 mi WNW 6.9 mph - N/A   Scattered Clouds
6:51 AM 55.0 °F 48.9 °F 80% 30.08 in 9.0 mi WNW 4.6 mph - N/A   Mostly Cloudy
7:51 AM 57.9 °F 46.0 °F 65% 30.10 in 10.0 mi North 9.2 mph - N/A   Overcast
8:51 AM 60.1 °F 43.0 °F 53% 30.11 in 10.0 mi North 5.8 mph - N/A   Mostly Cloudy
9:51 AM 63.0 °F 43.0 °F 48% 30.11 in 10.0 mi Calm Calm - N/A   Scattered Clouds
10:51 AM 66.0 °F 46.9 °F 50% 30.10 in 10.0 mi SE 5.8 mph - N/A   Partly Cloudy
11:51 AM 69.1 °F 51.1 °F 53% 30.08 in 10.0 mi Variable 4.6 mph - N/A   Scattered Clouds
12:51 PM 73.0 °F 52.0 °F 48% 30.05 in 10.0 mi SSW 9.2 mph - N/A   Scattered Clouds
1:51 PM 75.0 °F 51.1 °F 43% 30.03 in 10.0 mi South 10.4 mph 16.1 mph N/A   Mostly Cloudy
2:51 PM 75.2 °F 51.8 °F 44% 30.00 in 10.0 mi Variable 5.8 mph - N/A   Mostly Cloudy
3:51 PM 77.0 °F 50.0 °F 39% 29.97 in 10.0 mi SW 11.5 mph 19.6 mph N/A   Mostly Cloudy
4:51 PM 80.1 °F 48.9 °F 34% 29.95 in 10.0 mi SSW 17.3 mph 24.2 mph N/A   Mostly Cloudy
5:51 PM 80.1 °F 48.9 °F 34% 29.94 in 10.0 mi SSW 15.0 mph 23.0 mph N/A   Mostly Cloudy
6:51 PM 79.0 °F 50.0 °F 36% 29.94 in 10.0 mi SSW 11.5 mph - N/A   Scattered Clouds
7:51 PM 78.1 °F 50.0 °F 37% 29.94 in 10.0 mi SSW 9.2 mph - N/A   Scattered Clouds
8:51 PM 75.9 °F 50.0 °F 40% 29.93 in 10.0 mi SSW 9.2 mph - N/A   Scattered Clouds
9:51 PM 75.0 °F 50.0 °F 41% 29.93 in 10.0 mi SW 6.9 mph - N/A   Scattered Clouds
10:51 PM 73.0 °F 50.0 °F 44% 29.93 in 10.0 mi SW 6.9 mph - N/A   Scattered Clouds
11:51 PM 70.0 °F 50.0 °F 49% 29.94 in 10.0 mi West 5.8 mph - N/A   Scattered Clouds